���t,����,�O�C���x,�����t���O,�O�C���Ύ��x,�����t���O,���ԋ�C���x,�����t���O,���ԑ��Ύ��x,�����t���O,�g�C���^���N����,�����t���O,���֋�C���x,�����t���O,��g�[�����x,�����t���O
2004/1/1,0:00,9.4,0,59,0,21.9,0,60.8,0,12.2,0,14.3,0,13.3,0
2004/1/1,0:15,9.5,0,59,0,21.8,0,60.8,0,12,0,14.4,0,13.4,0
2004/1/1,0:30,9.5,0,59,0,22.1,0,60.6,0,12.1,0,14.4,0,13.4,0
2004/1/1,0:45,9.5,0,61,0,21.6,0,57,0,12,0,14.4,0,13.4,0
2004/1/1,1:00,9.6,0,60,0,21.2,0,54.5,0,12.1,0,14.4,0,13.5,0
2004/1/1,1:15,9.7,0,57,0,20.7,0,53,0,12.2,0,14.5,0,13.5,0
2004/1/1,1:30,9.7,0,55,0,20.3,0,52.1,0,12.2,0,14.5,0,13.6,0
2004/1/1,1:45,9.7,0,56,0,20,0,51.7,0,12.3,0,14.5,0,13.6,0
2004/1/1,2:00,9.8,0,54,0,19.7,0,51.3,0,12.4,0,14.5,0,13.6,0
2004/1/1,2:15,9.7,0,54,0,19.5,0,51.2,0,12.6,0,14.5,0,13.6,0
2004/1/1,2:30,9.7,0,52,0,19.3,0,50.9,0,12.7,0,14.5,0,13.6,0
2004/1/1,2:45,9.5,0,52,0,19,0,50.6,0,12.8,0,14.5,0,13.6,0
2004/1/1,3:00,9.5,0,52,0,18.8,0,50.5,0,12.8,0,14.5,0,13.6,0
2004/1/1,3:15,9.5,0,52,0,18.6,0,50.4,0,12.9,0,14.5,0,13.6,0
2004/1/1,3:30,9.5,0,50,0,18.4,0,50.2,0,13,0,14.5,0,13.6,0
2004/1/1,3:45,9.5,0,53,0,18.2,0,50.2,0,13.1,0,14.5,0,13.6,0
2004/1/1,4:00,9.5,0,55,0,18.1,0,50.2,0,13.2,0,14.5,0,13.6,0
2004/1/1,4:15,9.4,0,54,0,17.9,0,50.3,0,13.3,0,14.5,0,13.6,0
2004/1/1,4:30,9.4,0,52,0,17.7,0,50.3,0,13.4,0,14.5,0,13.6,0
2004/1/1,4:45,9.5,0,50,0,17.6,0,50.1,0,13.5,0,14.4,0,13.5,0
2004/1/1,5:00,9.5,0,53,0,17.4,0,50.1,0,13.6,0,14.4,0,13.5,0
2004/1/1,5:15,9.5,0,54,0,17.5,0,52.9,0,12,0,14.4,0,13.5,0
2004/1/1,5:30,9.5,0,54,0,17.9,0,55.1,0,12,0,14.4,0,13.6,0
2004/1/1,5:45,9.4,0,52,0,18.2,0,55.6,0,12.1,0,14.4,0,13.6,0
2004/1/1,6:00,9.5,0,57,0,18.7,0,55.7,0,12.7,0,14.5,0,13.7,0
2004/1/1,6:15,9.3,0,56,0,18.3,0,53,0,12.8,0,14.7,0,13.9,0
2004/1/1,6:30,9.2,0,57,0,17.9,0,53.2,0,12.8,0,14.7,0,13.9,0
2004/1/1,6:45,9.2,0,56,0,17.6,0,53.2,0,12.9,0,14.7,0,14,0
2004/1/1,7:00,9.1,0,55,0,17.3,0,53.2,0,13,0,14.7,0,14,0
2004/1/1,7:15,9.2,0,55,0,17.1,0,53.2,0,13.1,0,14.7,0,14,0
2004/1/1,7:30,9.1,0,56,0,16.9,0,53.2,0,13.2,0,14.7,0,13.9,0
2004/1/1,7:45,9.1,0,56,0,16.7,0,53.2,0,13.3,0,14.7,0,13.9,0
2004/1/1,8:00,9.2,0,56,0,16.6,0,53.2,0,13.3,0,14.7,0,13.9,0
2004/1/1,8:15,9.2,0,55,0,16.4,0,53.3,0,13.4,0,14.6,0,13.9,0
2004/1/1,8:30,9.3,0,55,0,16.2,0,53.2,0,13.5,0,14.6,0,13.9,0
2004/1/1,8:45,9.5,0,54,0,16.1,0,53.3,0,13.6,0,14.6,0,13.9,0
2004/1/1,9:00,9.8,0,54,0,16,0,53.2,0,13.7,0,14.6,0,13.9,0
2004/1/1,9:15,12,0,50,0,15.8,0,53.3,0,13.8,0,14.5,0,13.9,0
2004/1/1,9:30,14.4,0,42,0,15.8,0,53.3,0,13.9,0,14.5,0,13.9,0
2004/1/1,9:45,16,0,37,0,15.7,0,53,0,13.9,0,14.5,0,14,0
2004/1/1,10:00,16.1,0,37,0,15.7,0,53,0,14.1,0,14.5,0,14,0
2004/1/1,10:15,17.5,0,32,0,15.7,0,53,0,14.1,0,14.5,0,14.1,0
2004/1/1,10:30,17,0,31,0,15.6,0,52.5,0,14.2,0,14.5,0,14.2,0
2004/1/1,10:45,16.9,0,34,0,15.6,0,52.6,0,14.3,0,14.5,0,14.2,0
2004/1/1,11:00,17.1,0,33,0,15.6,0,52.6,0,14.3,0,14.5,0,14.3,0
2004/1/1,11:15,14.9,0,36,0,15.5,0,52.6,0,14.4,0,14.5,0,14.4,0
2004/1/1,11:30,15.8,0,35,0,15.5,0,52.4,0,14.5,0,14.5,0,14.4,0
2004/1/1,11:45,15.9,0,34,0,15.5,0,52,0,14.6,0,14.5,0,14.5,0
2004/1/1,12:00,15.8,0,34,0,15.5,0,52,0,14.7,0,14.5,0,14.6,0
2004/1/1,12:15,16.1,0,34,0,15.5,0,51.8,0,14.7,0,14.5,0,14.7,0
2004/1/1,12:30,16.4,0,33,0,15.5,0,51.7,0,14.8,0,14.5,0,14.8,0
2004/1/1,12:45,17,0,33,0,15.5,0,51.9,0,14.9,0,14.5,0,14.9,0
2004/1/1,13:00,17,0,31,0,15.5,0,52,0,14.9,0,14.5,0,15.1,0
2004/1/1,13:15,16.2,0,32,0,15.5,0,51.9,0,15,0,14.5,0,15.2,0
2004/1/1,13:30,15.6,0,36,0,15.5,0,51.7,0,15.1,0,14.5,0,15.2,0
2004/1/1,13:45,15.5,0,36,0,15.5,0,51.8,0,15.2,0,14.5,0,15.3,0
2004/1/1,14:00,15.6,0,37,0,15.5,0,51.8,0,15.3,0,14.5,0,15.3,0
2004/1/1,14:15,15.5,0,37,0,15.5,0,51.7,0,15.3,0,14.5,0,15.4,0
2004/1/1,14:30,14.9,0,38,0,15.5,0,51.6,0,15.4,0,14.5,0,15.5,0
2004/1/1,14:45,14.3,0,40,0,15.5,0,51.4,0,15.5,0,14.5,0,15.5,0
2004/1/1,15:00,13.8,0,44,0,15.5,0,51.5,0,15.5,0,14.5,0,15.5,0
2004/1/1,15:15,13.8,0,44,0,15.5,0,51.6,0,15.6,0,14.5,0,15.5,0
2004/1/1,15:30,13.7,0,45,0,15.4,0,51.5,0,15.7,0,14.6,0,15.5,0
2004/1/1,15:45,13.3,0,45,0,15.4,0,51.6,0,15.7,0,14.6,0,15.5,0
2004/1/1,16:00,12.8,0,47,0,15.4,0,51.4,0,15.8,0,14.6,0,15.5,0
2004/1/1,16:15,13,0,47,0,15.4,0,51.6,0,15.9,0,14.5,0,15.5,0
2004/1/1,16:30,12.6,0,47,0,15.3,0,51.7,0,16,0,14.5,0,15.5,0
2004/1/1,16:45,12.2,0,49,0,15.3,0,51.8,0,16,0,14.5,0,15.4,0
2004/1/1,17:00,12,0,50,0,15.2,0,51.9,0,16.1,0,14.5,0,15.4,0
2004/1/1,17:15,11.7,0,51,0,15.2,0,52,0,16.2,0,14.5,0,15.3,0
2004/1/1,17:30,11.4,0,52,0,15.1,0,52.1,0,16.2,0,14.5,0,15.3,0
2004/1/1,17:45,11.1,0,53,0,15.1,0,52.3,0,16.3,0,14.5,0,15.2,0
2004/1/1,18:00,10.8,0,55,0,15,0,52.4,0,16.3,0,14.5,0,15.1,0
2004/1/1,18:15,10.6,0,56,0,15,0,52.5,0,16.4,0,14.5,0,14.9,0
2004/1/1,18:30,10.4,0,56,0,14.9,0,52.6,0,16.4,0,14.5,0,14.8,0
2004/1/1,18:45,10.2,0,57,0,14.8,0,52.9,0,16.5,0,14.4,0,14.7,0
2004/1/1,19:00,10,0,58,0,14.8,0,53.1,0,16.6,0,14.4,0,14.6,0
2004/1/1,19:15,9.8,0,58,0,14.7,0,53.2,0,16.6,0,14.4,0,14.5,0
2004/1/1,19:30,9.8,0,59,0,14.6,0,53.3,0,16.7,0,14.4,0,14.4,0
2004/1/1,19:45,9.5,0,60,0,14.9,0,55.8,0,12.5,0,14.4,0,14.3,0
2004/1/1,20:00,9.2,0,61,0,16,0,58.8,0,12.3,0,14.4,0,14.3,0
2004/1/1,20:15,9.2,0,62,0,16.9,0,60,0,12.4,0,14.4,0,14.2,0
2004/1/1,20:30,9.1,0,62,0,17.8,0,60,0,12.5,0,14.4,0,14.1,0
2004/1/1,20:45,9.2,0,62,0,18.5,0,59.9,0,12.6,0,14.4,0,14,0
2004/1/1,21:00,9.2,0,62,0,19.3,0,59,0,12.7,0,14.4,0,14,0
2004/1/1,21:15,9.2,0,62,0,19.7,0,58.8,0,12.8,0,14.4,0,14,0
2004/1/1,21:30,9,0,63,0,20.1,0,58.2,0,12.2,0,14.4,0,13.9,0
2004/1/1,21:45,9.1,0,63,0,20.9,0,58.7,0,12.3,0,14.4,0,13.9,0
2004/1/1,22:00,9.2,0,63,0,21.6,0,58.7,0,12.3,0,14.4,0,13.8,0
2004/1/1,22:15,9.5,0,62,0,21.9,0,58.8,0,12.4,0,14.4,0,13.8,0
2004/1/1,22:30,9.7,0,62,0,22.3,0,58.4,0,12.6,0,14.4,0,13.7,0
2004/1/1,22:45,9.8,0,62,0,22.3,0,53.9,0,12.3,0,14.4,0,13.7,0
2004/1/1,23:00,9.9,0,62,0,22.4,0,55,0,12.3,0,14.5,0,13.8,0
2004/1/1,23:15,9.9,0,62,0,21.7,0,54.2,0,12.4,0,14.5,0,13.8,0
2004/1/1,23:30,9.5,0,63,0,21.5,0,55.1,0,12.5,0,14.5,0,13.8,0
2004/1/1,23:45,9.4,0,64,0,21.3,0,55.5,0,12.6,0,14.6,0,13.8,0
2004/1/2,0:00,9,0,65,0,21.1,0,56,0,12.3,0,14.6,0,13.7,0
2004/1/2,0:15,8.9,0,67,0,20.8,0,54.6,0,12.3,0,14.6,0,13.7,0
2004/1/2,0:30,9,0,67,0,20.4,0,54.4,0,12.3,0,14.6,0,13.7,0
2004/1/2,0:45,9,0,67,0,20,0,53.9,0,12.4,0,14.6,0,13.7,0
2004/1/2,1:00,8.9,0,67,0,19.7,0,53.2,0,12.5,0,14.6,0,13.6,0
2004/1/2,1:15,8.6,0,68,0,19.4,0,52.8,0,12.6,0,14.6,0,13.6,0
2004/1/2,1:30,8.6,0,69,0,19.2,0,52.5,0,12.7,0,14.6,0,13.6,0
2004/1/2,1:45,8.6,0,69,0,18.9,0,52.3,0,12.8,0,14.6,0,13.6,0
2004/1/2,2:00,8.6,0,69,0,18.7,0,52.5,0,12.9,0,14.5,0,13.5,0
2004/1/2,2:15,8.4,0,70,0,18.5,0,52.4,0,13,0,14.5,0,13.5,0
2004/1/2,2:30,8.6,0,70,0,18.3,0,52.5,0,13.1,0,14.5,0,13.5,0
2004/1/2,2:45,8.7,0,70,0,18.1,0,52.6,0,13.2,0,14.5,0,13.5,0
2004/1/2,3:00,8.9,0,67,0,17.9,0,52.7,0,13.3,0,14.5,0,13.4,0
2004/1/2,3:15,8.9,0,66,0,17.8,0,52.9,0,13.4,0,14.5,0,13.4,0
2004/1/2,3:30,9.6,0,60,0,17.6,0,53,0,13.5,0,14.5,0,13.4,0
2004/1/2,3:45,9.9,0,59,0,17.4,0,53.3,0,13.6,0,14.4,0,13.4,0
2004/1/2,4:00,10.1,0,59,0,17.3,0,53.4,0,13.6,0,14.4,0,13.3,0
2004/1/2,4:15,10.1,0,59,0,17.2,0,53.4,0,13.7,0,14.4,0,13.3,0
2004/1/2,4:30,10.1,0,59,0,17.1,0,53.7,0,13.8,0,14.4,0,13.3,0
2004/1/2,4:45,10.3,0,59,0,17,0,53.7,0,13.9,0,14.4,0,13.3,0
2004/1/2,5:00,10.4,0,59,0,16.9,0,53.8,0,14,0,14.4,0,13.3,0
2004/1/2,5:15,10.3,0,60,0,16.8,0,54,0,14.1,0,14.4,0,13.3,0
2004/1/2,5:30,9.8,0,62,0,16.7,0,53.9,0,14.1,0,14.3,0,13.3,0
2004/1/2,5:45,9.5,0,64,0,16.5,0,53.9,0,14.2,0,14.3,0,13.3,0
2004/1/2,6:00,9.4,0,64,0,16.4,0,54.1,0,14.3,0,14.3,0,13.3,0
2004/1/2,6:15,9.4,0,64,0,16.3,0,54.1,0,14.4,0,14.3,0,13.3,0
2004/1/2,6:30,9.4,0,64,0,16.3,0,54.1,0,14.4,0,14.3,0,13.2,0
2004/1/2,6:45,9.5,0,64,0,16.2,0,54.2,0,14.5,0,14.3,0,13.2,0
2004/1/2,7:00,9.6,0,63,0,16.1,0,54.3,0,14.6,0,14.3,0,13.2,0
2004/1/2,7:15,9.6,0,64,0,16,0,54.3,0,14.7,0,14.3,0,13.2,0
2004/1/2,7:30,9.7,0,63,0,15.9,0,54.4,0,14.8,0,14.2,0,13.2,0
2004/1/2,7:45,10.5,0,59,0,15.7,0,55.3,0,14.8,0,14.2,0,13.2,0
2004/1/2,8:00,11,0,56,0,15.7,0,56,0,12.8,0,14.2,0,13.2,0
2004/1/2,8:15,10.8,0,58,0,15.6,0,56.3,0,12.9,0,14.2,0,13.2,0
2004/1/2,8:30,11.4,0,57,0,15.5,0,56.3,0,13,0,14.2,0,13.2,0
2004/1/2,8:45,11.8,0,57,0,15.6,0,57.7,0,12.9,0,14.2,0,13.2,0
2004/1/2,9:00,12.6,0,55,0,16.5,0,63,0,12.9,0,14.3,0,13.3,0
2004/1/2,9:15,12.9,0,54,0,17.4,0,71.7,0,13,0,14.4,0,13.4,0
2004/1/2,9:30,12.6,0,59,0,18.4,0,77.8,0,13.1,0,14.4,0,13.5,0
2004/1/2,9:45,12.1,0,68,0,19.3,0,81.5,0,12.7,0,14.4,0,13.5,0
2004/1/2,10:00,11.7,0,75,0,20.1,0,78.3,0,12.7,0,14.4,0,13.6,0
2004/1/2,10:15,11.4,0,79,0,20.6,0,74.5,0,12.8,0,14.4,0,13.6,0
2004/1/2,10:30,11.1,0,81,0,20.5,0,67.7,0,12.9,0,14.5,0,13.7,0
2004/1/2,10:45,10.7,0,83,0,20.4,0,65.1,0,13,0,14.6,0,13.8,0
2004/1/2,11:00,10.6,0,83,0,20.3,0,64.7,0,12.6,0,14.6,0,13.9,0
2004/1/2,11:15,10.6,0,84,0,20.1,0,61.2,0,12.7,0,14.7,0,14,0
2004/1/2,11:30,10.3,0,83,0,20.2,0,62.4,0,12.8,0,14.7,0,14,0
2004/1/2,11:45,10.1,0,83,0,20.1,0,62.9,0,12.9,0,14.7,0,14,0
2004/1/2,12:00,9.9,0,83,0,20.3,0,63,0,12.7,0,14.8,0,14,0
2004/1/2,12:15,10.3,0,77,0,20.4,0,62.1,0,12.3,0,14.8,0,14,0
2004/1/2,12:30,10.3,0,77,0,19.8,0,56.8,0,12.7,0,14.9,0,14.1,0
2004/1/2,12:45,10.5,0,74,0,19.4,0,56.8,0,12.8,0,14.9,0,14.2,0
2004/1/2,13:00,10.6,0,71,0,19.1,0,56.7,0,12.8,0,15,0,14.2,0
2004/1/2,13:15,10.9,0,69,0,18.8,0,56.9,0,13,0,15,0,14.2,0
2004/1/2,13:30,11.6,0,68,0,18.6,0,56.9,0,13.1,0,15,0,14.3,0
2004/1/2,13:45,11.6,0,65,0,18.4,0,57,0,13.2,0,15.1,0,14.3,0
2004/1/2,14:00,11.6,0,66,0,18.2,0,57.1,0,13.3,0,15.1,0,14.3,0
2004/1/2,14:15,11.5,0,67,0,18,0,57.2,0,13.3,0,15.1,0,14.3,0
2004/1/2,14:30,11.5,0,66,0,17.8,0,57.3,0,13.4,0,15.1,0,14.3,0
2004/1/2,14:45,11.6,0,67,0,17.7,0,57.4,0,13.5,0,15.1,0,14.3,0
2004/1/2,15:00,11.6,0,63,0,17.5,0,57.8,0,13.6,0,15.1,0,14.3,0
2004/1/2,15:15,11.6,0,61,0,17.4,0,57.8,0,13.7,0,15.1,0,14.3,0
2004/1/2,15:30,11.6,0,61,0,17.2,0,57.9,0,13.8,0,15,0,14.3,0
2004/1/2,15:45,11.5,0,62,0,17.1,0,57.9,0,13.9,0,15,0,14.3,0
2004/1/2,16:00,11.6,0,63,0,17,0,58,0,14,0,15,0,14.3,0
2004/1/2,16:15,11.5,0,60,0,16.9,0,58,0,14.1,0,15,0,14.3,0
2004/1/2,16:30,11.4,0,58,0,16.8,0,58,0,14.1,0,15,0,14.3,0
2004/1/2,16:45,11.4,0,59,0,16.7,0,58.2,0,14.2,0,15,0,14.3,0
2004/1/2,17:00,11.2,0,58,0,17.5,0,63,0,12.8,0,15.2,0,14.3,0
2004/1/2,17:15,11,0,57,0,18.3,0,63.8,0,12.9,0,15.2,0,14.3,0
2004/1/2,17:30,11,0,56,0,18.9,0,63.6,0,13,0,15.1,0,14.2,0
2004/1/2,17:45,10.8,0,52,0,19.3,0,63.4,0,13.1,0,15.1,0,14.2,0
2004/1/2,18:00,10.5,0,49,0,19.5,0,63,0,13.2,0,15.1,0,14.1,0
2004/1/2,18:15,10.4,0,48,0,19.4,0,59.8,0,13.3,0,15.1,0,14.3,0
2004/1/2,18:30,10.3,0,46,0,19.6,0,60.5,0,12.7,0,15.1,0,14.2,0
2004/1/2,18:45,10.1,0,48,0,19.8,0,61.1,0,12.8,0,15.1,0,14.2,0
2004/1/2,19:00,10,0,49,0,20,0,66.6,0,12.9,0,15.1,0,14.1,0
2004/1/2,19:15,9.8,0,49,0,20.4,0,71.6,0,13,0,15.1,0,14.1,0
2004/1/2,19:30,9.7,0,49,0,20.9,0,74,0,13.1,0,15,0,14.1,0
2004/1/2,19:45,9.6,0,50,0,21.2,0,73.2,0,13.2,0,15,0,14,0
2004/1/2,20:00,9.6,0,51,0,21.6,0,72.2,0,13.3,0,15,0,14,0
2004/1/2,20:15,9.6,0,53,0,21.8,0,69.6,0,13.4,0,15,0,14,0
2004/1/2,20:30,9.7,0,54,0,21.8,0,68,0,13.4,0,15,0,13.9,0
2004/1/2,20:45,9.7,0,54,0,21.8,0,68,0,13.6,0,14.9,0,13.9,0
2004/1/2,21:00,9.7,0,53,0,21.2,0,59.5,0,12.9,0,15,0,14,0
2004/1/2,21:15,9.6,0,52,0,21.8,0,61.9,0,12.5,0,15,0,14.1,0
2004/1/2,21:30,9.5,0,53,0,22.4,0,61.9,0,12.2,0,15,0,14,0
2004/1/2,21:45,9.6,0,54,0,22.9,0,61.4,0,12.3,0,15,0,14,0
2004/1/2,22:00,9.7,0,54,0,23.2,0,60.8,0,12.4,0,15,0,13.9,0
2004/1/2,22:15,9.7,0,53,0,23.5,0,60.2,0,12.2,0,14.9,0,13.9,0
2004/1/2,22:30,9.7,0,54,0,23.6,0,55.1,0,12.5,0,14.9,0,13.9,0
2004/1/2,22:45,9.8,0,54,0,23.2,0,54.2,0,12.6,0,15,0,14,0
2004/1/2,23:00,9.7,0,56,0,23.1,0,54.4,0,12.5,0,15,0,14,0
2004/1/2,23:15,9.6,0,56,0,23,0,55.2,0,12.6,0,15,0,13.9,0
2004/1/2,23:30,9.5,0,55,0,22.6,0,56.1,0,12.6,0,15,0,13.9,0
2004/1/2,23:45,9.5,0,55,0,22.5,0,57,0,12.7,0,15,0,13.9,0
2004/1/3,0:00,9.5,0,55,0,22.5,0,57.6,0,12.8,0,15,0,13.9,0
2004/1/3,0:15,9.4,0,56,0,22.4,0,56.7,0,12.5,0,15,0,13.9,0
2004/1/3,0:30,9.3,0,57,0,22.1,0,56.5,0,12.4,0,15,0,13.8,0
2004/1/3,0:45,9.3,0,58,0,21.7,0,56,0,12.5,0,15,0,13.8,0
2004/1/3,1:00,9.2,0,59,0,21.4,0,56.3,0,12.6,0,15,0,13.8,0
2004/1/3,1:15,9.2,0,60,0,21.1,0,56.6,0,12.7,0,15,0,13.8,0
2004/1/3,1:30,9.2,0,61,0,20.8,0,56.9,0,12.8,0,14.9,0,13.7,0
2004/1/3,1:45,9,0,61,0,20.5,0,57,0,12.9,0,14.9,0,13.7,0
2004/1/3,2:00,8.9,0,61,0,20.2,0,57,0,13,0,14.9,0,13.7,0
2004/1/3,2:15,8.9,0,61,0,20,0,57,0,13.1,0,14.9,0,13.6,0
2004/1/3,2:30,8.7,0,60,0,19.7,0,57,0,13.2,0,14.8,0,13.6,0
2004/1/3,2:45,8.8,0,59,0,19.6,0,57.1,0,13.2,0,14.8,0,13.6,0
2004/1/3,3:00,8.6,0,60,0,19.4,0,57,0,13.3,0,14.8,0,13.5,0
2004/1/3,3:15,8.5,0,60,0,19.2,0,57,0,13.4,0,14.7,0,13.5,0
2004/1/3,3:30,8.4,0,60,0,19,0,57.1,0,13.5,0,14.7,0,13.5,0
2004/1/3,3:45,8.4,0,59,0,18.8,0,57.1,0,13.6,0,14.7,0,13.4,0
2004/1/3,4:00,8.4,0,59,0,18.6,0,56.9,0,13.7,0,14.6,0,13.4,0
2004/1/3,4:15,8.2,0,57,0,18.5,0,57.1,0,13.8,0,14.6,0,13.3,0
2004/1/3,4:30,8.1,0,56,0,18.3,0,57,0,13.9,0,14.6,0,13.3,0
2004/1/3,4:45,8,0,56,0,17.6,0,56.3,0,14,0,14.6,0,13.4,0
2004/1/3,5:00,8.1,0,56,0,17.6,0,56.5,0,12.8,0,14.6,0,13.4,0
2004/1/3,5:15,8.1,0,56,0,17.5,0,56.4,0,12.9,0,14.5,0,13.3,0
2004/1/3,5:30,8.1,0,56,0,17.4,0,56.3,0,12.9,0,14.5,0,13.3,0
2004/1/3,5:45,8.1,0,57,0,17.3,0,56.3,0,13,0,14.5,0,13.2,0
2004/1/3,6:00,8.2,0,57,0,17.2,0,56.3,0,13.1,0,14.4,0,13.2,0
2004/1/3,6:15,8.1,0,58,0,17,0,56.4,0,13.2,0,14.4,0,13.1,0
2004/1/3,6:30,8.1,0,59,0,16.9,0,56.4,0,13.3,0,14.4,0,13.1,0
2004/1/3,6:45,8.2,0,59,0,16.9,0,56.8,0,13.4,0,14.3,0,13.1,0
2004/1/3,7:00,8.2,0,59,0,17.6,0,59.1,0,13.4,0,14.3,0,13,0
2004/1/3,7:15,7.9,0,61,0,18.2,0,59.4,0,12.7,0,14.3,0,13.1,0
2004/1/3,7:30,7.8,0,61,0,18.8,0,60.3,0,12.7,0,14.3,0,13.1,0
2004/1/3,7:45,7.8,0,58,0,19.1,0,58.2,0,12.9,0,14.4,0,13.2,0
2004/1/3,8:00,7.8,0,58,0,18.7,0,56,0,12.9,0,14.4,0,13.2,0
2004/1/3,8:15,7.9,0,59,0,18.4,0,55.5,0,13,0,14.4,0,13.2,0
2004/1/3,8:30,8.1,0,59,0,18.2,0,55.2,0,13,0,14.4,0,13.3,0
2004/1/3,8:45,11.2,0,49,0,17.9,0,55,0,13.1,0,14.4,0,13.3,0
2004/1/3,9:00,15.3,0,36,0,17.7,0,55.1,0,13.2,0,14.3,0,13.3,0
2004/1/3,9:15,15.8,0,32,0,17.5,0,55,0,13.3,0,14.3,0,13.4,0
2004/1/3,9:30,20.5,0,23,0,17.4,0,54.7,0,13.4,0,14.3,0,13.5,0
2004/1/3,9:45,21.6,0,19,0,17.3,0,54.4,0,13.4,0,14.3,0,13.6,0
2004/1/3,10:00,21.8,0,17,0,17.3,0,54.2,0,13.6,0,14.3,0,13.8,0
2004/1/3,10:15,20.8,0,21,0,17.2,0,54.1,0,13.6,0,14.3,0,13.9,0
2004/1/3,10:30,18.9,0,26,0,17.2,0,53.9,0,13.7,0,14.3,0,14,0
2004/1/3,10:45,16.9,0,28,0,17.1,0,53.7,0,13.8,0,14.3,0,14.1,0
2004/1/3,11:00,17.9,0,28,0,17.1,0,53.4,0,13.9,0,14.3,0,14.2,0
2004/1/3,11:15,19.2,0,26,0,17,0,53.3,0,14,0,14.3,0,14.3,0
2004/1/3,11:30,18.9,0,24,0,17,0,53.2,0,14,0,14.3,0,14.4,0
2004/1/3,11:45,19.1,0,23,0,16.9,0,52.8,0,14.1,0,14.3,0,14.5,0
2004/1/3,12:00,19.2,0,24,0,16.9,0,52.6,0,14.2,0,14.3,0,14.6,0
2004/1/3,12:15,20.8,0,21,0,16.9,0,52.4,0,14.3,0,14.3,0,14.7,0
2004/1/3,12:30,21.9,0,18,0,16.9,0,52.2,0,14.3,0,14.3,0,14.9,0
2004/1/3,12:45,21.6,0,19,0,16.9,0,52.2,0,14.4,0,14.3,0,15,0
2004/1/3,13:00,22.3,0,17,0,16.9,0,52,0,14.5,0,14.3,0,15.1,0
2004/1/3,13:15,22.2,0,17,0,16.9,0,51.8,0,14.6,0,14.3,0,15.2,0
2004/1/3,13:30,19.8,0,19,0,16.9,0,51.8,0,14.6,0,14.3,0,15.4,0
2004/1/3,13:45,20.4,0,22,0,16.9,0,51.7,0,14.7,0,14.3,0,15.5,0
2004/1/3,14:00,20.4,0,21,0,16.9,0,51.4,0,14.8,0,14.3,0,15.6,0
2004/1/3,14:15,19.8,0,22,0,16.9,0,50.9,0,14.8,0,14.3,0,15.7,0
2004/1/3,14:30,17.2,0,29,0,16.9,0,50.7,0,14.9,0,14.3,0,15.7,0
2004/1/3,14:45,15.9,0,31,0,16.8,0,50.4,0,15,0,14.3,0,15.7,0
2004/1/3,15:00,14.9,0,34,0,16.8,0,50.1,0,15,0,14.3,0,15.8,0
2004/1/3,15:15,14.3,0,37,0,16.8,0,50.1,0,15.1,0,14.3,0,15.7,0
2004/1/3,15:30,14.3,0,36,0,16.7,0,50,0,15.2,0,14.3,0,15.7,0
2004/1/3,15:45,13.8,0,35,0,16.6,0,49.9,0,15.3,0,14.3,0,15.7,0
2004/1/3,16:00,13.9,0,35,0,16.5,0,49.8,0,15.3,0,14.3,0,15.8,0
2004/1/3,16:15,13.7,0,36,0,16.5,0,49.8,0,15.4,0,14.3,0,15.8,0
2004/1/3,16:30,13.1,0,37,0,16.4,0,49.9,0,15.5,0,14.3,0,15.8,0
2004/1/3,16:45,12.5,0,38,0,16.3,0,50.1,0,15.5,0,14.3,0,15.8,0
2004/1/3,17:00,12.3,0,39,0,16.2,0,50,0,15.6,0,14.3,0,15.7,0
2004/1/3,17:15,11.8,0,41,0,16.1,0,50,0,15.7,0,14.3,0,15.7,0
2004/1/3,17:30,11.3,0,43,0,16.1,0,50.2,0,15.7,0,14.3,0,15.6,0
2004/1/3,17:45,10.9,0,45,0,16,0,50.2,0,15.8,0,14.3,0,15.5,0
2004/1/3,18:00,10.7,0,46,0,15.9,0,50.3,0,15.9,0,14.3,0,15.4,0
2004/1/3,18:15,10.4,0,47,0,15.8,0,50.3,0,15.9,0,14.2,0,15.3,0
2004/1/3,18:30,10.4,0,48,0,15.7,0,50.3,0,16,0,14.2,0,15.2,0
2004/1/3,18:45,10.4,0,48,0,15.6,0,50.3,0,16,0,14.2,0,15.1,0
2004/1/3,19:00,10.3,0,49,0,15.5,0,50.5,0,16.1,0,14.2,0,15,0
2004/1/3,19:15,10.2,0,50,0,15.5,0,50.6,0,16.1,0,14.2,0,14.9,0
2004/1/3,19:30,9.8,0,54,0,15.4,0,50.8,0,16.2,0,14.2,0,14.8,0
2004/1/3,19:45,9.5,0,57,0,15.3,0,50.9,0,16.3,0,14.2,0,14.7,0
2004/1/3,20:00,9.2,0,58,0,15.2,0,50.9,0,16.3,0,14.2,0,14.6,0
2004/1/3,20:15,9.2,0,56,0,15.1,0,51.1,0,16.4,0,14.2,0,14.4,0
2004/1/3,20:30,9.3,0,54,0,15,0,51.3,0,16.4,0,14.1,0,14.3,0
2004/1/3,20:45,8.9,0,56,0,14.9,0,51.3,0,16.5,0,14.1,0,14.2,0
2004/1/3,21:00,8.6,0,58,0,15.3,0,54.5,0,15.5,0,14.1,0,14.1,0
2004/1/3,21:15,8.6,0,58,0,16,0,58.6,0,13.8,0,14.1,0,14.1,0
2004/1/3,21:30,8.9,0,55,0,16.7,0,60.9,0,13.9,0,14.1,0,14,0
2004/1/3,21:45,9,0,55,0,17.6,0,62.2,0,14,0,14.1,0,13.9,0
2004/1/3,22:00,9,0,56,0,18.5,0,62.4,0,14,0,14.1,0,13.8,0
2004/1/3,22:15,8.6,0,60,0,19,0,61.1,0,14.1,0,14.1,0,13.8,0
2004/1/3,22:30,8.3,0,62,0,19.6,0,60.1,0,14.2,0,14.2,0,13.8,0
2004/1/3,22:45,8.1,0,64,0,20.2,0,62.1,0,12.7,0,14.2,0,13.7,0
2004/1/3,23:00,8.1,0,62,0,20.8,0,61.2,0,12.7,0,14.2,0,13.7,0
2004/1/3,23:15,8.1,0,63,0,21.4,0,61,0,12.8,0,14.2,0,13.7,0
2004/1/3,23:30,8.2,0,63,0,21.9,0,61.1,0,12.9,0,14.2,0,13.6,0
2004/1/3,23:45,8.3,0,63,0,22.3,0,60,0,13,0,14.3,0,13.6,0
2004/1/4,0:00,8.2,0,65,0,21,0,52.4,0,13.1,0,14.5,0,13.9,0
2004/1/4,0:15,8,0,66,0,21.6,0,54.1,0,12.4,0,14.5,0,14,0
2004/1/4,0:30,8.1,0,67,0,21.7,0,55.6,0,12.4,0,14.5,0,13.9,0
2004/1/4,0:45,8,0,67,0,21.7,0,56.1,0,12.1,0,14.6,0,13.9,0
2004/1/4,1:00,7.7,0,68,0,21.7,0,56.5,0,12.1,0,14.6,0,13.8,0
2004/1/4,1:15,7.5,0,70,0,21,0,52,0,12.4,0,14.7,0,13.9,0
2004/1/4,1:30,7.1,0,71,0,20.6,0,53.5,0,12.5,0,14.7,0,13.9,0
2004/1/4,1:45,7,0,72,0,20.2,0,53.5,0,12.5,0,14.7,0,13.9,0
2004/1/4,2:00,6.8,0,73,0,19.9,0,53.8,0,12.6,0,14.7,0,13.8,0
2004/1/4,2:15,6.8,0,74,0,19.6,0,53.8,0,12.7,0,14.6,0,13.7,0
2004/1/4,2:30,6.8,0,74,0,19.4,0,54,0,12.8,0,14.6,0,13.7,0
2004/1/4,2:45,6.7,0,74,0,19.1,0,54.1,0,12.9,0,14.6,0,13.6,0
2004/1/4,3:00,6.5,0,75,0,18.9,0,54.3,0,13,0,14.6,0,13.6,0
2004/1/4,3:15,6.5,0,74,0,18.7,0,54.4,0,13.1,0,14.6,0,13.5,0
2004/1/4,3:30,6.3,0,77,0,18.4,0,54.7,0,13.2,0,14.5,0,13.4,0
2004/1/4,3:45,6,0,77,0,18.2,0,54.8,0,13.2,0,14.5,0,13.4,0
2004/1/4,4:00,5.8,0,78,0,18,0,55.1,0,13.3,0,14.5,0,13.3,0
2004/1/4,4:15,6,0,77,0,17.8,0,55.4,0,13.4,0,14.5,0,13.2,0
2004/1/4,4:30,6.2,0,78,0,17.6,0,55.7,0,13.5,0,14.5,0,13.2,0
2004/1/4,4:45,6.1,0,78,0,17.4,0,55.9,0,13.6,0,14.4,0,13.1,0
2004/1/4,5:00,5.9,0,79,0,17.2,0,56.3,0,13.7,0,14.4,0,13.1,0
2004/1/4,5:15,5.6,0,80,0,17.1,0,56.6,0,13.8,0,14.4,0,13,0
2004/1/4,5:30,5.7,0,80,0,16.9,0,56.6,0,13.9,0,14.3,0,13,0
2004/1/4,5:45,5.8,0,79,0,16.7,0,56.9,0,13.9,0,14.3,0,12.9,0
2004/1/4,6:00,5.8,0,78,0,16.5,0,57.1,0,14,0,14.3,0,12.9,0
2004/1/4,6:15,5.8,0,79,0,16.4,0,57.2,0,14.1,0,14.2,0,12.8,0
2004/1/4,6:30,5.6,0,80,0,16,0,56.2,0,12.7,0,14.2,0,12.9,0
2004/1/4,6:45,5.7,0,81,0,15.9,0,57.3,0,12.7,0,14.2,0,12.8,0
2004/1/4,7:00,5.7,0,81,0,15.8,0,57.6,0,12.8,0,14.2,0,12.8,0
2004/1/4,7:15,5.8,0,81,0,15.7,0,57.7,0,12.9,0,14.1,0,12.7,0
2004/1/4,7:30,5.7,0,82,0,15.5,0,57.9,0,13,0,14.1,0,12.7,0
2004/1/4,7:45,5.5,0,83,0,15.4,0,58.1,0,13.1,0,14.1,0,12.6,0
2004/1/4,8:00,5.6,0,82,0,15.3,0,58.2,0,13.2,0,14,0,12.6,0
2004/1/4,8:15,6.1,0,81,0,15.2,0,58.3,0,13.3,0,14,0,12.5,0
2004/1/4,8:30,6.2,0,81,0,15.1,0,58.5,0,13.4,0,14,0,12.5,0
2004/1/4,8:45,6.5,0,81,0,15,0,58.7,0,13.4,0,13.9,0,12.5,0
2004/1/4,9:00,7.7,0,77,0,14.9,0,58.8,0,13.5,0,13.9,0,12.5,0
2004/1/4,9:15,10.7,0,64,0,14.8,0,59,0,13.6,0,13.9,0,12.6,0
2004/1/4,9:30,10.9,0,59,0,14.8,0,59.2,0,13.7,0,13.9,0,12.6,0
2004/1/4,9:45,12.2,0,56,0,14.8,0,58.4,0,13.8,0,13.9,0,12.7,0
2004/1/4,10:00,13.8,0,50,0,14.7,0,57.8,0,12,0,13.8,0,12.7,0
2004/1/4,10:15,13.8,0,49,0,15.2,0,58.4,0,12.1,0,13.9,0,12.9,0
2004/1/4,10:30,14.2,0,44,0,16,0,57.5,0,12.4,0,13.9,0,13,0
2004/1/4,10:45,13.1,0,48,0,17,0,59.7,0,12.5,0,13.9,0,13.1,0
2004/1/4,11:00,14.1,0,45,0,18.1,0,68.5,0,12.5,0,13.9,0,13.2,0
2004/1/4,11:15,15.2,0,41,0,18.8,0,67.8,0,12.6,0,14,0,13.4,0
2004/1/4,11:30,16.4,0,37,0,19.1,0,65.4,0,12.7,0,14.2,0,14,0
2004/1/4,11:45,16.6,0,36,0,20,0,72,0,12.8,0,14.2,0,14.1,0
2004/1/4,12:00,16.3,0,36,0,20.6,0,71.9,0,12.3,0,14.3,0,14.3,0
2004/1/4,12:15,16.9,0,36,0,21.7,0,80.6,0,12.4,0,14.4,0,14.4,0
2004/1/4,12:30,18.1,0,32,0,21.2,0,62.9,0,12.5,0,14.4,0,14.7,0
2004/1/4,12:45,17.5,0,32,0,21.1,0,66.4,0,12.6,0,14.6,0,15,0
2004/1/4,13:00,16.9,0,33,0,21.1,0,68.6,0,12.6,0,14.6,0,15.1,0
2004/1/4,13:15,17.1,0,34,0,20,0,65,0,12.6,0,14.8,0,15.2,0
2004/1/4,13:30,16.3,0,35,0,20.3,0,64.3,0,12.7,0,14.8,0,15.3,0
2004/1/4,13:45,16.8,0,32,0,20.3,0,64.4,0,12.8,0,14.8,0,15.3,0
2004/1/4,14:00,16.3,0,33,0,20.3,0,64.1,0,12.9,0,14.8,0,15.4,0
2004/1/4,14:15,16.3,0,36,0,20.7,0,66.4,0,12.9,0,14.9,0,15.4,0
2004/1/4,14:30,16.1,0,35,0,21.6,0,66.5,0,12.1,0,14.9,0,15.4,0
2004/1/4,14:45,16.4,0,35,0,22.1,0,65.5,0,12.2,0,14.9,0,15.5,0
2004/1/4,15:00,16.4,0,35,0,22.2,0,64.5,0,12.2,0,14.9,0,15.5,0
2004/1/4,15:15,16.8,0,35,0,21.7,0,59.1,0,12.1,0,15,0,15.7,0
2004/1/4,15:30,16.7,0,35,0,21.4,0,57.3,0,12.2,0,15.1,0,15.8,0
2004/1/4,15:45,16.4,0,35,0,21.1,0,58,0,12.5,0,15.2,0,15.9,0
2004/1/4,16:00,16.1,0,36,0,20.9,0,57.8,0,12.6,0,15.2,0,16,0
2004/1/4,16:15,15.7,0,37,0,20.9,0,58.7,0,12.7,0,15.3,0,16,0
2004/1/4,16:30,15.1,0,37,0,20.7,0,58.2,0,12.8,0,15.3,0,16.1,0
2004/1/4,16:45,14.6,0,39,0,20.5,0,58.3,0,12.3,0,15.3,0,16.1,0
2004/1/4,17:00,14.2,0,41,0,20.2,0,58.7,0,12.4,0,15.3,0,16.1,0
2004/1/4,17:15,13.6,0,42,0,20,0,58.6,0,12.5,0,15.3,0,16.1,0
2004/1/4,17:30,13.2,0,42,0,19.8,0,58.7,0,12.6,0,15.3,0,16.1,0
2004/1/4,17:45,12.6,0,43,0,19.6,0,58.6,0,12.7,0,15.3,0,16,0
2004/1/4,18:00,12.3,0,45,0,19.4,0,58.6,0,12.8,0,15.3,0,16,0
2004/1/4,18:15,11.1,0,53,0,19.2,0,58.4,0,12.9,0,15.3,0,15.9,0
2004/1/4,18:30,10.5,0,54,0,19,0,58.3,0,13.1,0,15.3,0,15.9,0
2004/1/4,18:45,10.2,0,54,0,18.9,0,58.2,0,13.2,0,15.3,0,15.7,0
2004/1/4,19:00,10,0,52,0,18.7,0,58,0,13.3,0,15.3,0,15.6,0
2004/1/4,19:15,9.5,0,53,0,18.5,0,58,0,13.4,0,15.2,0,15.5,0
2004/1/4,19:30,9.2,0,55,0,18.4,0,57.8,0,13.5,0,15.2,0,15.3,0
2004/1/4,19:45,8.9,0,54,0,18.2,0,57.8,0,13.6,0,15.2,0,15.2,0
2004/1/4,20:00,8.9,0,55,0,18,0,57.7,0,13.7,0,15.2,0,15,0
2004/1/4,20:15,8.4,0,57,0,17.9,0,57.6,0,13.8,0,15.1,0,14.9,0
2004/1/4,20:30,8.2,0,58,0,17.7,0,57.5,0,13.9,0,15.1,0,14.8,0
2004/1/4,20:45,8.5,0,55,0,17.6,0,57.3,0,13.9,0,15,0,14.7,0
2004/1/4,21:00,8.3,0,57,0,17.4,0,57.3,0,14.1,0,15,0,14.6,0
2004/1/4,21:15,7.9,0,60,0,17.9,0,60.1,0,14.2,0,15,0,14.5,0
2004/1/4,21:30,7.8,0,61,0,18.6,0,65.1,0,13.1,0,15,0,14.4,0
2004/1/4,21:45,7.5,0,64,0,19.4,0,67.2,0,13.2,0,14.9,0,14.3,0
2004/1/4,22:00,7.1,0,69,0,20.1,0,66.8,0,13.3,0,14.9,0,14.2,0
2004/1/4,22:15,7.3,0,68,0,20.8,0,65.7,0,13.4,0,14.9,0,14.1,0
2004/1/4,22:30,7.4,0,68,0,21.4,0,64.6,0,13.4,0,14.9,0,14.1,0
2004/1/4,22:45,7,0,70,0,21.8,0,63.4,0,13.5,0,14.9,0,14,0
2004/1/4,23:00,6.8,0,72,0,22.1,0,61.8,0,12.3,0,14.9,0,13.9,0
2004/1/4,23:15,6.6,0,73,0,22.1,0,60.6,0,12.1,0,14.9,0,13.9,0
2004/1/4,23:30,7,0,71,0,22,0,59.6,0,12.2,0,14.9,0,13.8,0
2004/1/4,23:45,6.9,0,71,0,21.9,0,59.2,0,12.3,0,14.9,0,13.8,0
2004/1/5,0:00,6.9,0,71,0,21.8,0,58.7,0,12.4,0,14.8,0,13.7,0
2004/1/5,0:15,6.8,0,71,0,21.8,0,58.9,0,12.5,0,14.8,0,13.6,0
2004/1/5,0:30,7.1,0,70,0,22.2,0,57.9,0,12.6,0,14.8,0,13.6,0
2004/1/5,0:45,6.5,0,72,0,22.7,0,59.3,0,12.5,0,14.8,0,13.6,0
2004/1/5,1:00,6.2,0,73,0,22.7,0,58.4,0,12.5,0,14.8,0,13.6,0
2004/1/5,1:15,5.8,0,75,0,22.6,0,57.7,0,12.6,0,14.7,0,13.5,0
2004/1/5,1:30,5.7,0,78,0,22.5,0,57.2,0,12.7,0,14.7,0,13.4,0